[[{"header":{"parameterUnit":"m.s-1","parameterCategory":1,"la1":30.2991,"la2":30.254,"lo1":-89.0895,"lo2":-89.0444,"dy":0.0017,"dx":0.0017,"nx":28,"ny":28,"refTime":"2024-09-30T03:00:00:Z","depth":0,"parameterNumber":2,"parameterNumberName":"U-component_of_WINDS"},"data":[0,0,0,0,0,0,0,0,0,0,0,0,0,0,0,0,0,0,0,0,0,0,0,0,0,0,0,0,0,0,0,0,0,0,0,0,0,0,0,0,0,0,0,0,0,0,0,0,0,0,0,0,0,0,0,0,0,0,0.4576,0.4577,0,0.4655,0.4656,0.4657,0.4702,0.4703,0.4703,0.4703,0.4787,0.4789,0.4791,0,0,0,0,0,0,0,0,0,0,0,0,0,0.4468,0.447,0.4576,0.4577,0.4578,0.4655,0.4656,0.4657,0.4702,0.4703,0.4703,0.4703,0.4786,0.4788,0.4791,0,0,0,0,0,0,0,0,0,0,0,0,0,0.4528,0.447,0.4576,0.461,0.4614,0.4655,0.4656,0.4657,0.4702,0.4703,0.4703,0.4703,0.4785,0.4788,0.4791,0.4806,0,0,0.4801,0.4802,0,0,0,0,0,0,0,0,0.4524,0.4532,0.4604,0.4608,0.4612,0.4669,0.4649,0.4707,0.4702,0.4669,0.4703,0.4703,0.4747,0.4754,0.4768,0.4809,0.4813,0.4801,0.4803,0.4804,0.4805,0,0,0,0,0,0,0,0.452,0.4529,0.4607,0.4605,0.461,0.4622,0.4631,0.466,0.4706,0.4672,0.4675,0.4684,0.475,0.4765,0.477,0.4814,0.4801,0.4804,0.4806,0.4807,0.4873,0.4873,0,0,0,0,0,0,0.451,0.4525,0.4605,0.461,0.4568,0.4624,0.4634,0.4651,0.4706,0.4714,0.4683,0.4686,0.476,0.4767,0.4773,0.4795,0.4804,0.4807,0.4809,0.4873,0.4873,0.4873,0,0,0,0,0,0,0.4508,0.4517,0.4602,0.4568,0.458,0.4626,0.4644,0.4652,0.4667,0.4714,0.4723,0.469,0.476,0.4769,0.4797,0.4798,0.4809,0.4811,0.4874,0.4873,0.4873,0.4837,0,0,0,0,0,0,0.4504,0.4516,0.4521,0.4568,0.4582,0.4623,0.4644,0.4653,0.4672,0.4676,0.4723,0.4731,0.4761,0.4792,0.48,0.4803,0.4814,0.4874,0.4873,0.4873,0.4838,0.4836,0.4833,0,0,0,0,0,0.45,0.4507,0.4521,0.453,0.4589,0.4623,0.4631,0.4664,0.4672,0.4678,0.4709,0.473,0.4797,0.4795,0.4804,0.4808,0.4874,0.4874,0.4873,0.4839,0.4836,0.4833,0,0,0,0,0,0,0.4459,0.4514,0.4529,0.4552,0.4582,0.463,0.4639,0.4659,0.4688,0.4691,0.4731,0.4742,0.4766,0.479,0.4787,0.4825,0.4838,0.4839,0.4809,0.4806,0.4804,0.4798,0.4816,0,0,0,0,0,0.4453,0.4475,0.4522,0.4538,0.4552,0.4593,0.4609,0.4632,0.4665,0.4679,0.4711,0.4744,0.4773,0.4791,0.482,0.4842,0.4854,0.4849,0.4847,0.4844,0.4845,0.486,0.4859,0.4872,0.4872,0.4872,0,0,0.444,0.4473,0.4484,0.453,0.4557,0.458,0.4603,0.4627,0.4645,0.4683,0.4711,0.4737,0.4776,0.4801,0.4814,0.4822,0.4844,0.4844,0.4842,0.4844,0.486,0.4859,0.4858,0.4872,0.4872,0.4872,0,0,0.4428,0.4454,0.4471,0.4497,0.4536,0.4563,0.4567,0.4613,0.4631,0.466,0.4689,0.4712,0.476,0.4787,0.4808,0.4808,0.4829,0.4816,0.4803,0.4817,0.4816,0.4815,0.4816,0.4816,0.4817,0.4817,0.4817,0,0.4407,0.4442,0.4477,0.4499,0.4519,0.4554,0.4571,0.4595,0.4642,0.4656,0.4664,0.4725,0.4754,0.4787,0.4787,0.4802,0.4809,0.4811,0.4813,0.4813,0.4813,0.4814,0.4814,0.4815,0.4815,0.4815,0.4816,0,0.4415,0.4439,0.4448,0.4492,0.4513,0.4533,0.4572,0.4589,0.4611,0.4637,0.4668,0.4704,0.4741,0.4751,0.4772,0.4787,0.4791,0.4805,0.4819,0.4809,0.4811,0.4812,0.4812,0.4813,0.4814,0.4814,0,0,0.4379,0.4442,0.4445,0.4466,0.4513,0.4533,0.4555,0.4591,0.4606,0.4638,0.4658,0.4698,0.4712,0.4735,0.476,0.4772,0.4771,0.4786,0.4787,0.4782,0.4792,0.4781,0.4781,0.4786,0.4786,0.4786,0.4789,0,0.4374,0.4414,0.4447,0.4475,0.4499,0.4533,0.4553,0.4584,0.461,0.4635,0.4665,0.4693,0.4709,0.4723,0.4737,0.4768,0.4774,0.4769,0.4806,0.4807,0.4795,0.4782,0.477,0.4771,0.479,0.479,0.479,0,0.4373,0.4404,0.4434,0.448,0.4491,0.4508,0.4544,0.4567,0.4605,0.4623,0.4649,0.4675,0.4701,0.4712,0.475,0.4746,0.4763,0.4781,0.4782,0.4787,0.4798,0.4787,0.4772,0.4772,0.4792,0.4792,0.4791,0,0.4345,0.4393,0.4418,0.4435,0.4489,0.45,0.4523,0.4561,0.4581,0.4613,0.4627,0.4661,0.4681,0.4708,0.4743,0.4748,0.4778,0.4791,0.4795,0.4794,0.48,0.4799,0.4787,0.481,0.481,0.481,0.481,0,0.4336,0.4354,0.4406,0.4421,0.4443,0.4481,0.4502,0.4528,0.4561,0.4583,0.4615,0.4636,0.4681,0.4707,0.4735,0.4763,0.4771,0.4788,0.4795,0.4785,0.4783,0.4797,0.4798,0.481,0.481,0.481,0.481,0,0.4307,0.4343,0.4372,0.4421,0.4434,0.4448,0.449,0.4507,0.4535,0.4563,0.4572,0.4617,0.4649,0.4687,0.4733,0.4752,0.4777,0.4788,0.4764,0.4769,0.477,0.477,0.4768,0.477,0.479,0.479,0.479,0,0.4299,0.4314,0.4364,0.4381,0.4403,0.443,0.4451,0.4489,0.451,0.4554,0.4566,0.4601,0.4631,0.4682,0.4719,0.4755,0.4766,0.4763,0.4772,0.4762,0.4767,0.4766,0.4768,0.4761,0.476,0.476,0.476,0,0.4282,0.4299,0.4327,0.4362,0.4386,0.4415,0.4446,0.4458,0.4503,0.4525,0.4558,0.4582,0.4628,0.4663,0.4703,0.4729,0.4752,0.4757,0.476,0.475,0.4736,0.4744,0.4758,0.4757,0.4757,0.4757,0.4757,0.4758,0.4264,0.4278,0.4317,0.4347,0.4375,0.4403,0.4422,0.4453,0.4481,0.4521,0.4543,0.4577,0.4615,0.4672,0.4696,0.4724,0.4732,0.4736,0.4737,0.4737,0.4734,0.4731,0.4731,0.4731,0.4732,0.4732,0.4732,0,0.4248,0.4275,0.4303,0.4345,0.437,0.4389,0.4425,0.4444,0.4473,0.4507,0.4536,0.4576,0.461,0.465,0.4687,0.4702,0.4714,0.4711,0.471,0.4716,0.4725,0.4719,0.47,0.47,0.47,0.47,0.47,0.47,0.4243,0.427,0.4292,0.4333,0.436,0.4393,0.4411,0.4438,0.4466,0.4508,0.4537,0.4563,0.46,0.464,0.4673,0.4684,0.4697,0.469,0.4704,0.4712,0.4715,0.4717,0.4712,0.4692,0.4692,0.4693,0.4693,0.4693]},{"header":{"parameterUnit":"m.s-1","parameterCategory":1,"la1":30.2991,"la2":30.254,"lo1":-89.0895,"lo2":-89.0444,"dy":0.0017,"dx":0.0017,"nx":28,"ny":28,"refTime":"2024-09-30T03:00:00:Z","depth":0,"parameterNumber":3,"parameterNumberName":"V-component_of_WINDS"},"data":[0,0,0,0,0,0,0,0,0,0,0,0,0,0,0,0,0,0,0,0,0,0,0,0,0,0,0,0,0,0,0,0,0,0,0,0,0,0,0,0,0,0,0,0,0,0,0,0,0,0,0,0,0,0,0,0,0,0,2.4682,2.4682,0,2.4721,2.4721,2.4722,2.4752,2.4752,2.4752,2.4753,2.4789,2.4789,2.479,0,0,0,0,0,0,0,0,0,0,0,0,0,2.4629,2.463,2.4682,2.4682,2.4683,2.4721,2.4721,2.4722,2.4752,2.4752,2.4752,2.4753,2.4788,2.4789,2.479,0,0,0,0,0,0,0,0,0,0,0,0,0,2.4658,2.463,2.4682,2.4702,2.4705,2.4721,2.4721,2.4722,2.4752,2.4752,2.4752,2.4753,2.4788,2.4789,2.479,2.4788,0,0,2.4793,2.4794,0,0,0,0,0,0,0,0,2.4657,2.466,2.4699,2.4701,2.4704,2.4732,2.4716,2.4744,2.4751,2.4734,2.4753,2.4753,2.4769,2.4772,2.4778,2.4789,2.4791,2.4793,2.4794,2.4794,2.4795,0,0,0,0,0,0,0,2.4655,2.4659,2.4697,2.4699,2.4702,2.4708,2.4713,2.4721,2.4748,2.4735,2.4737,2.4742,2.477,2.4777,2.4779,2.4791,2.4793,2.4794,2.4795,2.4795,2.4801,2.4801,0,0,0,0,0,0,2.465,2.4657,2.4696,2.4698,2.4681,2.4709,2.4714,2.4722,2.4748,2.4753,2.4741,2.4743,2.4775,2.4778,2.478,2.4779,2.4794,2.4795,2.4796,2.4802,2.4801,2.4801,0,0,0,0,0,0,2.4649,2.4653,2.4694,2.4678,2.4684,2.4709,2.4718,2.4723,2.4729,2.4753,2.4758,2.4743,2.4775,2.4779,2.4786,2.478,2.4796,2.4797,2.4802,2.4802,2.4801,2.4775,0,0,0,0,0,0,2.4647,2.4653,2.4653,2.4678,2.4685,2.47,2.4718,2.4723,2.4731,2.4734,2.4756,2.476,2.4776,2.4784,2.4787,2.4782,2.4798,2.4803,2.4802,2.4801,2.4777,2.4774,2.4771,0,0,0,0,0,2.4645,2.4644,2.4653,2.4657,2.4686,2.47,2.4703,2.4723,2.4731,2.4731,2.4746,2.4759,2.478,2.4784,2.4788,2.4783,2.4803,2.4802,2.4801,2.4778,2.4774,2.4771,0,0,0,0,0,0,2.4616,2.4647,2.4658,2.4665,2.468,2.4705,2.4705,2.4719,2.473,2.4732,2.4755,2.4759,2.4763,2.4774,2.4778,2.4781,2.4793,2.4793,2.4775,2.4771,2.4769,2.4766,2.4798,0,0,0,0,0,2.4611,2.4621,2.4647,2.465,2.4657,2.468,2.4687,2.47,2.4716,2.4722,2.4738,2.4751,2.4761,2.4767,2.4777,2.4778,2.4783,2.4777,2.4774,2.4772,2.4771,2.4771,2.4769,2.4797,2.4797,2.4797,0,0,2.4599,2.4618,2.4622,2.4645,2.4658,2.4666,2.4685,2.4693,2.4699,2.4723,2.4731,2.4742,2.4759,2.4762,2.4765,2.4771,2.4764,2.477,2.4768,2.4769,2.477,2.4767,2.4765,2.4797,2.4797,2.4797,0,0,2.4583,2.4598,2.4602,2.4615,2.4635,2.465,2.4651,2.4674,2.4683,2.4691,2.4709,2.4715,2.4732,2.4743,2.475,2.4737,2.4749,2.4739,2.4725,2.4725,2.4723,2.4721,2.4716,2.4714,2.4739,2.4738,2.4738,0,2.4566,2.4581,2.4602,2.461,2.4619,2.4641,2.4645,2.4656,2.4677,2.4682,2.4689,2.471,2.4723,2.4729,2.4725,2.4731,2.4732,2.4737,2.4722,2.472,2.4719,2.4714,2.4712,2.4737,2.4737,2.4737,2.4738,0,2.4558,2.4568,2.4569,2.459,2.4599,2.4604,2.4625,2.4631,2.4644,2.4658,2.4665,2.4681,2.4694,2.4697,2.4709,2.4704,2.4708,2.4718,2.473,2.4714,2.471,2.4708,2.4735,2.4736,2.4736,2.4736,0,0,2.4525,2.4558,2.4558,2.4568,2.4591,2.4598,2.4603,2.4618,2.4622,2.4636,2.464,2.4653,2.4663,2.4671,2.4685,2.4685,2.4672,2.4695,2.4696,2.469,2.4667,2.4659,2.4657,2.4681,2.468,2.468,2.4666,0,2.4512,2.4525,2.4544,2.455,2.4559,2.458,2.4584,2.4598,2.4611,2.4619,2.4632,2.4641,2.4653,2.4658,2.466,2.4673,2.4668,2.4675,2.4684,2.4684,2.4679,2.4654,2.4646,2.4632,2.4664,2.4664,2.4664,0,2.4499,2.4512,2.4519,2.4541,2.4545,2.4549,2.4563,2.4571,2.4586,2.4595,2.4605,2.4619,2.4625,2.4636,2.4643,2.4647,2.4652,2.4659,2.4659,2.466,2.4673,2.4655,2.4628,2.4625,2.4661,2.4661,2.4662,0,2.4473,2.4493,2.45,2.4507,2.4533,2.4535,2.4545,2.4561,2.4568,2.458,2.4585,2.4596,2.4603,2.4611,2.4627,2.4634,2.4632,2.4645,2.4639,2.4638,2.4637,2.4637,2.461,2.4641,2.4641,2.4641,2.4641,0,2.4457,2.446,2.4489,2.4493,2.4496,2.4517,2.452,2.4532,2.4546,2.4552,2.457,2.4575,2.4597,2.4603,2.4616,2.4619,2.4622,2.4629,2.4632,2.4627,2.4626,2.463,2.4632,2.464,2.464,2.464,2.4641,0,2.4429,2.4449,2.4457,2.4481,2.4486,2.4488,2.4507,2.4511,2.4525,2.4531,2.4534,2.4555,2.4564,2.4581,2.4594,2.4603,2.4603,2.4609,2.4598,2.46,2.4593,2.4593,2.4568,2.4565,2.4597,2.4597,2.4596,0,2.4417,2.442,2.4444,2.445,2.446,2.4469,2.4476,2.4496,2.4503,2.452,2.4521,2.4532,2.4541,2.4554,2.4569,2.4579,2.4586,2.4576,2.4587,2.4582,2.4585,2.4584,2.4584,2.4573,2.4573,2.4573,2.4572,0,2.4394,2.4403,2.4414,2.4427,2.4436,2.4447,2.4459,2.4462,2.4485,2.4491,2.4501,2.4508,2.4522,2.4532,2.4544,2.4553,2.4566,2.4569,2.4568,2.4562,2.4556,2.4559,2.4591,2.4569,2.4569,2.457,2.457,2.457,2.4373,2.4377,2.4394,2.4405,2.4416,2.4427,2.4432,2.4446,2.4455,2.4468,2.4479,2.4487,2.4501,2.4519,2.4528,2.4534,2.454,2.4539,2.4538,2.4538,2.4535,2.4555,2.4536,2.4536,2.4536,2.4536,2.4536,0,2.435,2.4362,2.4372,2.4389,2.4397,2.4409,2.4423,2.4429,2.4436,2.4449,2.4458,2.4468,2.4477,2.4493,2.4504,2.4505,2.4511,2.4507,2.4507,2.4509,2.4529,2.4529,2.4502,2.4502,2.4502,2.4502,2.4502,2.4502,2.434,2.4346,2.4357,2.4368,2.438,2.4389,2.4396,2.4405,2.4415,2.4427,2.4435,2.4445,2.4459,2.447,2.4479,2.4483,2.4486,2.448,2.4486,2.4504,2.4508,2.4511,2.4511,2.448,2.448,2.4465,2.4465,2.4465]}]]